Location: Melbourne
(37.8170°S, 144.9670°E)
Time: 06:29:40
(UTC+10:00)

CZ-3 R/B - Visible Passes

Search period start: 24 May 2017 00:00
Search period end: 03 June 2017 00:00
Orbit: 249 x 10531 km, 28.4° (Epoch: 22 May)

Date Brightness Start Highest point End Pass type
(mag) Time Alt. Az. Time Alt. Az. Time Alt. Az.
24 May 5.7 17:27:28 10° W 17:46:32 63° N 19:02:53 10° NE visible
24 May 6.8 21:18:19 10° W 22:00:20 35° NW 23:08:42 10° N visible
25 May 6.0 18:12:09 10° W 18:35:15 58° NNW 19:54:29 10° NE visible
25 May 6.8 22:08:36 10° W 22:50:32 26° NW 23:49:48 10° N visible
26 May 6.3 18:57:10 10° W 19:24:42 51° NNW 20:43:46 10° NE visible
26 May 6.8 23:04:51 10° W 23:40:33 17° NW 00:24:52 10° NNW visible
27 May 6.5 19:42:46 10° W 20:14:41 44° NNW 21:30:53 10° NNE visible
28 May 5.4 16:41:14 10° W 16:55:51 61° N 18:00:41 10° ENE visible
28 May 6.8 20:29:22 10° W 21:04:53 36° NW 22:15:53 10° NNE visible
29 May 5.7 17:25:19 10° W 17:43:06 56° NNW 18:53:47 10° NE visible
29 May 7.0 21:17:49 10° W 21:55:08 28° NW 22:58:15 10° N visible
30 May 6.0 18:09:42 10° W 18:31:08 50° NNW 19:44:37 10° NE visible
30 May 7.0 22:10:20 10° WNW 22:45:29 19° NW 23:36:02 10° NNW visible
31 May 6.4 18:54:31 10° W 19:19:53 44° NNW 20:33:09 10° NNE visible
31 May 7.0 23:18:33 10° WNW 23:36:24 11° NW 23:56:55 10° NW visible
01 Jun 6.6 19:40:08 10° W 20:09:15 36° NNW 21:19:27 10° NNE visible
02 Jun 5.4 16:37:43 10° W 16:51:19 54° N 17:49:25 10° NE visible
02 Jun 6.9 20:27:10 10° W 20:59:04 29° NW 22:03:12 10° N visible
